Location: Albany
(35.0000°S, 118.0000°E)
Time: 13:08:43
(UTC-04:00)

Atlas Centaur 2 - Visible Passes

Search period start: 23 October 2017 00:00
Search period end: 02 November 2017 00:00
Orbit: 459 x 1313 km, 30.4° (Epoch: 22 October)

Date Brightness Start Highest point End Pass type
(mag) Time Alt. Az. Time Alt. Az. Time Alt. Az.
23 Oct 4.4 13:26:26 28° ENE 13:26:26 28° ENE 13:30:17 10° E visible
23 Oct 3.1 15:09:03 43° NW 15:11:57 63° N 15:19:56 10° E visible
24 Oct 4.3 13:22:56 29° ENE 13:22:56 29° ENE 13:26:53 10° E visible
24 Oct 3.1 15:05:32 44° WNW 15:08:24 65° N 15:16:31 10° E visible
25 Oct 4.3 13:19:27 29° ENE 13:19:27 29° ENE 13:23:27 10° E visible
25 Oct 3.1 15:02:04 44° WNW 15:04:52 65° N 15:13:04 10° ENE visible
25 Oct 3.4 16:46:20 10° W 16:54:30 49° NNW 17:01:50 10° NE visible
26 Oct 4.3 13:16:02 29° ENE 13:16:02 29° ENE 13:19:57 10° E visible
26 Oct 3.1 14:58:39 45° WNW 15:01:19 64° N 15:09:35 10° ENE visible
26 Oct 3.5 16:42:52 10° W 16:50:54 44° NNW 16:58:14 10° NE visible
27 Oct 4.3 13:12:42 28° ENE 13:12:42 28° ENE 13:16:27 10° E visible
27 Oct 3.1 14:55:19 46° WNW 14:57:46 62° N 15:06:04 10° ENE visible
27 Oct 3.6 16:39:26 10° W 16:47:16 40° NNW 16:54:33 10° NE visible
28 Oct 4.4 13:09:29 26° ENE 13:09:29 26° ENE 13:12:55 10° E visible
28 Oct 3.1 14:52:07 48° NW 14:54:11 59° N 15:02:30 10° ENE visible
28 Oct 3.8 16:36:04 10° W 16:43:37 35° NNW 16:50:46 10° NE visible
29 Oct 4.5 13:06:25 24° ENE 13:06:25 24° ENE 13:09:22 10° E visible
29 Oct 3.2 14:49:04 49° NW 14:50:37 55° NNW 14:58:53 10° ENE visible
29 Oct 3.9 16:32:47 10° W 16:39:57 30° NNW 16:46:52 10° NNE visible
30 Oct 4.7 13:03:31 20° ENE 13:03:31 20° ENE 13:05:48 10° ENE visible
30 Oct 3.2 14:46:11 48° NNW 14:47:02 50° NNW 14:55:13 10° ENE visible
30 Oct 4.1 16:29:36 10° W 16:36:16 26° NNW 16:42:49 10° NNE visible
31 Oct 4.9 13:00:50 16° ENE 13:00:50 16° ENE 13:02:12 10° ENE visible
31 Oct 3.3 14:43:31 45° NNW 14:43:31 45° NNW 14:51:28 10° NE visible
31 Oct 4.2 16:26:34 10° WNW 16:32:36 22° NNW 16:38:34 10° NNE visible
01 Nov 5.2 12:58:22 11° ENE 12:58:22 11° ENE 12:58:34 10° ENE visible
01 Nov 3.6 14:41:04 38° N 14:41:04 38° N 14:47:38 10° NE visible
01 Nov 4.4 16:23:46 10° WNW 16:28:54 18° NNW 16:34:03 10° N visible
